Погода в Хоринске

Поиск расширенной информации на нашем сайте:

Полезная информация:

Новости сайта



02.01.2020
Опубликован Долгосрочный прогноз погоды по городам России и ближнего зарубежья на январь 2020 года.
Карты: Прогноз на январь и февраль 2020 года, Сравнение прогнозируемой аномалии приземной температуры воздуха на январь 2020 года по разным моделям.




Погода в Хоринске - сегодня

Время (UTC), дата Ветер
(°,м/с) 
Видим.   Явления Облачность Т
(°С)
Тd
(°С)
f(%) Тe
(°С)
Pmin
(гПа)
dP
(гПа)
Po
(мм)
O2
(г/м3)
Тmin Tmax R s Состояние
почвы
18 29.11.20 220 (ЮЗ) н/о  в посл. час снег  10/0 средняя 
[As trans]
-12.1 -14.1 85 -14  1039.1  -0.1  715  303           
21 29.11.20 150 (ЮВ) н/о    8/0 средняя, верхняя 
[Ac trans|Ci fib]
-14.8 -16 91 -17  1039.7  -0.3  715  306           
00 30.11.20 190 (Ю) 20000 м  в посл. час снег  9/0 средняя, верхняя 
[As trans|Ci fib]
-16 -16.9 93 -16  1040.3  0.1  715  307  -19    0.0  равномерный
сухой снег
100% 
03 30.11.20 230 (ЮЗ) 20000 м    10/0 средняя 
[As trans]
-10.7 -12.7 85 -15  1038.7  0.3  715  301           
06 30.11.20 250 (З) 20000 м    10/5 1000 м кучево-дожд., средняя 
[Cb cap|Ac As]
-8.8 -13.2 70 -13  1037.4  -0.7  714  299           
09 30.11.20 230 (ЮЗ) 20000 м    10/8 1000 м кучево-дожд., верхняя 
[Cb cap|Ci sp]
-9.2 -11.8 81 -13  1037.8  0.3  715  299           
12 30.11.20 240 (ЮЗ) н/о    10/5 1000 м кучево-дожд., верхняя 
[Cb cap|Ci sp]
-9.7 -13.4 74 -14  1037.9  -0.1  715  300    -8.6       
15 30.11.20 240 (ЮЗ) н/о    10/0 верхняя 
[Ci sp]
-9.8 -11.9 85 -14  1037.4  -0.5  714  300           
18 30.11.20 240 (ЮЗ) 5{10}  н/о    10/3 1000 м кучево-дожд., верхняя 
[Cb cap|Ci sp]
-9.5 -12.2 81 -14  1036.7  -0.5  714  299           
21 30.11.20 230 (ЮЗ) н/о    9/3 1000 м кучево-дожд., средняя, верхняя 
[Cb cap|Ac lent|Ci fib]
-10.3 -14.3 72 -15  1036.4  -0.5  713  300           
00 01.12.20 240 (ЮЗ) 6{10}  20000 м    8/0 средняя, верхняя 
[Ac lent|Ci fib]
-10.9 -14.6 74 -16  1036.6  713  301  -10.9      равномерный
сухой снег
100% 
06 01.12.20 250 (З) 20000 м    9/5 1000 м верхняя 
[Sc|Ci sp]
-7.1 -12.8 64 -11  1034.8  -0.9  713  296           
09 01.12.20 250 (З) 20000 м    8/5 1000 м верхняя 
[Sc|Cc]
-7.2 -11.3 72 -11  1034.5  -0.3  713  296           
12 01.12.20 250 (З) 5{10}  н/о    6/0 средняя, верхняя 
[Ac lent|Cc]
-7.9 -11.5 75 -12  1035.4  0.6  713  297    -6.3       
15 01.12.20 250 (З) 3{10}  н/о    3/0 верхняя 
[Ci sp]
-9.5 -11 89 -12  1036.6  0.6  714  299           
18 01.12.20 260 (З) н/о    4/0 средняя, верхняя 
[Ac lent|Ci fib]
-10.2 -12.6 83 -15  1037.4  0.5  714  300           
21 01.12.20 270 (З) 3{10}  н/о    9/5 1000 м средняя, верхняя 
[Sc|Ac As|Ci sp]
-11.6 -14.3 80 -15  1038.4  0.6  715  302           
00 02.12.20 240 (ЮЗ) 6-10{10}  20000 м    8/4 1000 м кучево-дожд., средняя 
[Cb cap|Ac lent]
-10.5 -14.1 75 -16  1038.5  0.3  715  301  -12.2      равномерный
сухой снег
100% 
03 02.12.20 250 (З) 6{11}  20000 м    10/1 1000 м верхняя 
[Sc|Cc]
-10.3 -13.8 75 -16  1039.3  0.8  715  301           
06 02.12.20 240 (ЮЗ) 6-10{12}  20000 м    8/3 1000 м верхняя 
[Sc diur, vesp|Cc]
-8.6 -14.3 63 -14  1038.6  -0.1  715  299           
12 02.12.20 240 (ЮЗ) 4{10}  н/о    3/0 верхняя 
[Ci fib]
-11.1 -14.7 75 -15  1041.1  0.8  716  302    -8.4       
15 02.12.20 220 (ЮЗ) н/о    3/0 верхняя 
[Ci fib]
-11.9 -15 78 -15  1041.9  0.5  717  303           
18 02.12.20 220 (ЮЗ) 3{10}  н/о    3/0 верхняя 
[Ci fib]
-12 -14.6 81 -15  1041.6  -0.2  717  303           
21 02.12.20 240 (ЮЗ) н/о    6/0 средняя, верхняя 
[Ac trans|Ci sp]
-12.5 -14.6 84 -16  1040.9  -0.9  716  304           
00 03.12.20 250 (З) 5-10{10}  20000 м    8/6 1000 м верхняя 
[Sc|Ci fib]
-10.8 -13.6 80 -16  1039.9  -0.3  716  301  -13.2      равномерный
сухой снег
100% 
Время (UTC), дата Ветер
(°,м/с) 
Видим.   Явления Облачность Т
(°С)
Тd
(°С)
f(%) Тe
(°С)
Pmin
(гПа)
dP
(гПа)
Po
(мм)
O2
(г/м3)
Тmin Tmax R s Состояние
почвы

Для получения пояснительной информации подведите курсор к названию столбца.

ПОГОДА в Хоринске - архив

Всё, что Вы хотите узнать о погоде в Хоринске - удобно и подробно!

Выберите нужную дату (начиная с 1 января 2019* года) и нажмите кнопку "Найти".
Будут отображены архивные сводки погоды по пункту Хоринск, начиная с указанной даты.


Отображать данные в формате CSV (для использования в таблицах Excel)


Внимание! Наш архив погоды предназначен исключительно для личного некоммерческого использования в познавательных целях. Если Вам необходимы официальные справки о состоянии погоды (для производственных, юридических, коммерческих и т.п. целей), обращайтесь в органы Росгидромета.

*Примечание: данная дата относится к архиву по метеостанциям СССР (Россия, СНГ, Балтия).
Архив по метеостанциям Зарубежной Европы и Азии (кроме Китая) хранится 10 дней, по другим регионам земного шара (Китай, Африка, Америка, Австралия, Океания) - 1 день.

Хоринск - район местоположения метеостанции


Название, широта, долгота, высота метеостанции:
Хоринск 52.2°ш. 109.8°д. 666 м над ур. моря [Российская Федерация]

Дополнительная информация

В oтличие oт бoльшинства пoгoдных сайтoв мы публикуем пoдрoбную метеoинфoрмацию в детальнoм прoфессиoнальнoм фoрмате.

Характеристики температуры и влажнoсти вoздуха измеряются на высoте 2 м в тени вдали oт зданий и деревьев.
Скoрoсть ветра измеряется на высoте 10 м (на урoвне рoста челoвека скoрoсть ветра ниже в 1.5-2 раза). Если метеoстанция нахoдится в гoрoде или в лесу, тo скoрoсть ветра занижена на 2-4 м/с пo сравнению с oткрытым местoм. Скoрoсть ветра над акватoриями крупных рек и oзёр, а также на вершинах хoлмoв на 2-5 м/с выше, чем в oбычных услoвиях.
Атмoсфернoе давление в разных тoчках местнoсти мoжет значительнo oтличаться oт давления на метеoстанции, в зависимoсти oт услoвий рельефа (при пoдъёме на 10 м давление пoнижается примернo на 1 мм рт.ст.).